STARLINK-3872 (52453 NORAD) Tracking and Keplerian Element Data

This shows tracking and keplerian element data for the satellite.

Feedback or suggestion? Click here.




ElementValue
Catalog52453
NameSTARLINK-3872
Epoch Orbit130
Epoch Day192.91667824
Epoch Year2022
RAAN310.1124
Inclination53.2153
Eccentricity0.0001596
Argument of Perigee53.4597
Mean Anonmoly322.9708
Mean Motion15.08869933
Decay Rate-0.00041987
L11 52453U 22049C 22192.91667824 -.00041987 00000+0 -26333-2 0 9994
L22 52453 53.2153 310.1124 0001596 53.4597 322.9708 15.08869933 1303

Live tracking and technical data element details for STARLINK-3872 (NORAD 52453). STARLINK-3872 can be tracked NOW for your location showing map with azimuth and elevation plus other details from your city location.

Track the satellite on the map from your city or location and see movement details for azimuth, elevation, latitude, longitude, range, height, and movement on the map or in text.







IsCatalogInMostPopularTable: catalog: 52453, numindb: 6
Update: records affected: 1



GetName: 52453 STARLINK-3872

Hit Count: updated at: Sun, 14 Aug 2022 01:10:15 GMT